SA27 CYKF-ZZZZ

Flight info

Callsign SA27
Flight time N/A
Altitude 5500
Route CYXU/15 VFR EASTBOUNND
Aircraft L39/L-V/N

Departure

Time 2026-05-06 00:34
Airport Region of Waterloo International Airport (CYKF)

Arrival

Time N/A
Airport ZZZZ
Time Latitude Longitude Altitude Speed Heading
2026-05-06 00:28 43.45581 -80.38852 1031 ft 0 kts 64°
2026-05-06 00:29 43.45582 -80.38851 1031 ft 0 kts 62°
2026-05-06 00:29 43.45620 -80.38840 1031 ft 14 kts
2026-05-06 00:29 43.45683 -80.38815 1032 ft 6 kts 54°
2026-05-06 00:29 43.45707 -80.38751 1032 ft 9 kts 63°
2026-05-06 00:30 43.45736 -80.38660 1033 ft 13 kts 66°
2026-05-06 00:30 43.45782 -80.38522 1034 ft 18 kts 64°
2026-05-06 00:30 43.45837 -80.38367 1034 ft 18 kts 65°
2026-05-06 00:30 43.45888 -80.38213 1036 ft 17 kts 64°
2026-05-06 00:31 43.45934 -80.38073 1038 ft 15 kts 66°
2026-05-06 00:31 43.45980 -80.37940 1040 ft 19 kts 65°
2026-05-06 00:31 43.46037 -80.37773 1043 ft 19 kts 65°
2026-05-06 00:31 43.46088 -80.37618 1045 ft 17 kts 63°
2026-05-06 00:32 43.46137 -80.37477 1047 ft 16 kts 68°
2026-05-06 00:32 43.46181 -80.37346 1049 ft 13 kts 64°
2026-05-06 00:32 43.46218 -80.37234 1050 ft 13 kts 65°
2026-05-06 00:32 43.46285 -80.37183 1051 ft 13 kts 13°
2026-05-06 00:33 43.46375 -80.37204 1050 ft 14 kts 316°
2026-05-06 00:33 43.46377 -80.37259 1049 ft 0 kts 244°
2026-05-06 00:33 43.46339 -80.37369 1048 ft 60 kts 245°
2026-05-06 00:34 43.46000 -80.38388 1231 ft 158 kts 246°
2026-05-06 00:34 43.45523 -80.39974 2525 ft 191 kts 249°
2026-05-06 00:34 43.45180 -80.41667 3472 ft 190 kts 270°
2026-05-06 00:34 43.45242 -80.43474 4456 ft 185 kts 274°
2026-05-06 00:35 43.45302 -80.45303 5138 ft 205 kts 273°
2026-05-06 00:35 43.45380 -80.47374 5779 ft 210 kts 272°
2026-05-06 00:35 43.45470 -80.49381 6504 ft 211 kts 273°
2026-05-06 00:35 43.45562 -80.51387 6513 ft 209 kts 269°
2026-05-06 00:36 43.45213 -80.53301 6511 ft 209 kts 244°
2026-05-06 00:36 43.44215 -80.54778 6511 ft 216 kts 220°
2026-05-06 00:36 43.42947 -80.55885 6515 ft 215 kts 219°
2026-05-06 00:36 43.41814 -80.57196 6515 ft 212 kts 230°
2026-05-06 00:37 43.40827 -80.58691 6517 ft 210 kts 233°
2026-05-06 00:37 43.39860 -80.60201 6517 ft 210 kts 232°
2026-05-06 00:37 43.38879 -80.61696 6519 ft 211 kts 232°
2026-05-06 00:37 43.37893 -80.63189 6516 ft 211 kts 232°
2026-05-06 00:38 43.36905 -80.64684 6519 ft 211 kts 232°
2026-05-06 00:38 43.35919 -80.66176 6517 ft 211 kts 232°
2026-05-06 00:38 43.34933 -80.67666 6518 ft 211 kts 232°
2026-05-06 00:38 43.33948 -80.69158 6517 ft 211 kts 232°
2026-05-06 00:39 43.33036 -80.70713 6514 ft 207 kts 243°
2026-05-06 00:39 43.32546 -80.72553 6518 ft 205 kts 255°
2026-05-06 00:39 43.32161 -80.74444 6513 ft 206 kts 256°
2026-05-06 00:39 43.31782 -80.76339 6516 ft 206 kts 256°
2026-05-06 00:40 43.31408 -80.78235 6519 ft 206 kts 256°
2026-05-06 00:40 43.31041 -80.80121 6523 ft 206 kts 256°
2026-05-06 00:40 43.30668 -80.82032 6522 ft 206 kts 256°
2026-05-06 00:40 43.30304 -80.83908 6521 ft 206 kts 256°
2026-05-06 00:41 43.29934 -80.85810 6518 ft 206 kts 256°
2026-05-06 00:41 43.29550 -80.87706 6519 ft 207 kts 252°
2026-05-06 00:41 43.28757 -80.89358 6514 ft 212 kts 226°
2026-05-06 00:41 43.27469 -80.90400 6515 ft 218 kts 210°
2026-05-06 00:42 43.26138 -80.91369 6514 ft 215 kts 218°
2026-05-06 00:42 43.24942 -80.92579 6517 ft 213 kts 223°
2026-05-06 00:42 43.23775 -80.93833 6516 ft 213 kts 223°
2026-05-06 00:42 43.22599 -80.95069 6513 ft 213 kts 222°
2026-05-06 00:43 43.21419 -80.96301 6512 ft 212 kts 223°
2026-05-06 00:43 43.20478 -80.97755 6508 ft 206 kts 242°
2026-05-06 00:43 43.19821 -80.99527 6502 ft 200 kts 246°
2026-05-06 00:43 43.19213 -81.01232 6073 ft 201 kts 246°
2026-05-06 00:44 43.18593 -81.02974 5549 ft 205 kts 246°
2026-05-06 00:44 43.17963 -81.04745 5060 ft 209 kts 246°
2026-05-06 00:44 43.17320 -81.06549 4585 ft 212 kts 246°
2026-05-06 00:44 43.16671 -81.08373 4146 ft 213 kts 246°
2026-05-06 00:45 43.16028 -81.10200 3745 ft 213 kts 246°
2026-05-06 00:45 43.15392 -81.12031 3348 ft 213 kts 246°
2026-05-06 00:45 43.14767 -81.13862 2977 ft 212 kts 246°
2026-05-06 00:45 43.14110 -81.15664 2656 ft 214 kts 231°
2026-05-06 00:46 43.12806 -81.16499 2662 ft 217 kts 182°
2026-05-06 00:46 43.11312 -81.16604 2565 ft 215 kts 196°
2026-05-06 00:46 43.09870 -81.17222 2482 ft 219 kts 200°
2026-05-06 00:46 43.08434 -81.17933 2345 ft 221 kts 201°